Regional Weather Roundup
Issued by NWS

Home | Current Version | Previous Version | Graphics & Text | Print | Product List | Glossary Off
Versions: 1 2 3 4 5 6 7 8 9 10 11 12 13 14 15 16 17 18 19 20 21 22 23 24 25 26 27 28 29 30 31 32 33 34 35 36 37 38 39 40 41 42 43 44 45 46 47 48 49 50

000
ASUS43 KTOP 211108
RWRKS

WEATHER ROUNDUP FOR KANSAS
NATIONAL WEATHER SERVICE GOODLAND KS
600 AM CDT MON AUG 21 2017

NOTE:  "FAIR" INDICATES FEW OR NO CLOUDS BELOW 12,000 FEET WITH NO
SIGNIFICANT WEATHER AND/OR OBSTRUCTIONS TO VISIBILITY.

KSZ001>006-013>018-027>032-041>047-211200-
NORTHWEST KANSAS

CITY           SKY/WX    TMP DP  RH WIND       PRES   REMARKS
GOODLAND       PTCLDY    66  62  87 S9        29.99S
HAYS           MOCLDY    75  65  70 S15       30.00R
HILL CITY      CLOUDY    75  65  70 S15G22    29.96S
RUSSELL        MOCLDY    75  61  61 S18G29    29.99R
$$

KSZ061>065-074>080-084>089-211200-
SOUTHWEST KANSAS

CITY           SKY/WX    TMP DP  RH WIND       PRES   REMARKS
DODGE CITY     PTCLDY    70  66  87 SE15      30.06S
ELKHART          N/A     67  61  81 SW10        N/A
GARDEN CITY    CLOUDY    68  61  78 SE8       30.04S
GREAT BEND     CLOUDY    74  63  68 S26G35    30.01R
LIBERAL        CLOUDY    70  63  78 SW10      30.05S
PRATT          LGT RAIN  67  65  93 NE6       30.06F
$$

KSZ066>073-081>083-090>101-211200-
SOUTHEAST KANSAS

CITY           SKY/WX    TMP DP  RH WIND       PRES   REMARKS
CHANUTE        CLEAR     75  73  93 SE8       30.05R
COFFEYVILLE    CLEAR     76  73  91 S7        30.04R
HUTCHINSON     LGT RAIN  73  66  78 SW21G32   30.03R
MEDICINE LODGE   N/A     69  67  93 N7G17     30.05S
NEWTON         CLOUDY    76  69  79 SW15G22   30.04R
PARSONS        CLEAR     76  72  87 S3        30.06R
WICHITA INTL   CLOUDY    77  70  79 W7        30.04R
WICHITA JABRA  CLOUDY    78  74  87 SW9       30.04R
WICHITA MCCONL CLOUDY    77  71  81 SW10      30.05R
WINFIELD       PTCLDY    77  72  84 S6        30.05R
$$

KSZ007>012-019>026-033>040-048>060-102>105-211200-
NORTHEAST KANSAS

CITY           SKY/WX    TMP DP  RH WIND       PRES   REMARKS
CONCORDIA      MOCLDY    77  66  68 SW13      29.96R
EMPORIA        CLOUDY    74  72  93 S8        30.02R
LAWRENCE       PTCLDY    73  72  96 E6        30.02R
MANHATTAN      PTCLDY    75  72  90 SW5       29.98R
MARYSVILLE     PTCLDY    75  72  88 S6        29.97S
OLATHE IND     CLOUDY    73  69  87 S9        30.05R
OLATHE EXE     CLOUDY    70  69  97 S6        30.05R
SALINA         CLOUDY    78  65  63 S13       30.00R
TOPEKA BILLARD PTCLDY    76  74  93 S5        30.00R
TOPEKA FORBES  PTCLDY    77  74  90 S8        30.01R
$$




USA.gov is the U.S. government's official web portal to all federal, state and local government web resources and services.